Weather History for South Bend, IN

Change the Weather History Date:

Saturday, September 24, 2011

  Actual Average Record
Temperature  
Mean Temperature 55 °F 60 °F  
Max Temperature 60 °F 71 °F 94 °F (1922)
Min Temperature 49 °F 50 °F 30 °F (1928)
Degree Days  
Heating Degree Days 10 6  
Month to date heating degree days 106 72  
Since 1 July heating degree days 106 90  
Cooling Degree Days 0 1  
Month to date cooling degree days 72 74  
Year to date cooling degree days 958 756  
Growing Degree Days 4 (Base 50)    
Moisture  
Dew Point 50 °F    
Average Humidity 82    
Maximum Humidity 96    
Minimum Humidity 67    
Precipitation  
Precipitation 0.10 in 0.13 in 1.77 in (1945)
Month to date precipitation 0.86 2.85  
Year to date precipitation 33.04 28.12  
Snow  
Snow 0.00 in - - ()
Month to date snowfall 0.0  
Snow Depth 0.00 in    
Sea Level Pressure  
Sea Level Pressure 30.01 in    
Wind  
Wind Speed 5 mph (ESE)    
Max Wind Speed 16 mph    
Max Gust Speed 20 mph    
Visibility 10 miles    
Events Rain    
T = Trace of Precipitation, MM = Missing Value Source: NWS Daily Summary

Daily Weather History Graph

Daily Weather History Graph

Search for Another Location

Airport:

Trip Planner

Search our weather history database for the weather conditions in past years. The results will help you decide how hot, cold, wet, or windy it might be!

Date:

Astronomy

Sep. 24, 2011 Rise Set
Actual Time 7:34 AM EDT 7:39 PM EDT
Civil Twilight 7:06 AM EDT 8:07 PM EDT
Nautical Twilight 6:34 AM EDT 8:39 PM EDT
Astronomical Twilight 6:01 AM EDT 9:12 PM EDT
Moon 4:07 AM EDT (9/24) 5:47 PM EDT (9/24)
Length of Visible Light 13h 00m
Length of Day
12h 04m
Waning Crescent, 11% of the Moon is Illuminated
Sep 24
Waning Crescent
Sep 27
New
Oct 3
First Quarter
Oct 11
Full
Oct 19
Last Quarter

Hourly Weather History & Observations

Time (EDT) Temp. Dew Point Humidity Pressure Visibility Wind Dir Wind Speed Gust Speed Precip Events Conditions
12:54 AM 50.0 °F 46.9 °F 89% 30.03 in 10.0 mi Calm Calm - N/A   Mostly Cloudy
1:54 AM 50.0 °F 46.9 °F 89% 30.02 in 10.0 mi Calm Calm - N/A   Mostly Cloudy
2:54 AM 50.0 °F 48.0 °F 93% 30.01 in 10.0 mi Calm Calm - N/A   Overcast
3:54 AM 51.1 °F 48.0 °F 89% 30.01 in 10.0 mi Calm Calm - 0.00 in Rain Light Rain
4:54 AM 51.1 °F 48.9 °F 92% 30.00 in 8.0 mi ESE 5.8 mph - 0.00 in   Overcast
5:54 AM 51.1 °F 50.0 °F 96% 30.02 in 7.0 mi SSE 5.8 mph - 0.00 in Rain Light Rain
6:54 AM 51.1 °F 50.0 °F 96% 30.02 in 8.0 mi Calm Calm - 0.02 in Rain Light Rain
7:54 AM 51.1 °F 48.9 °F 92% 30.02 in 8.0 mi Calm Calm - 0.00 in   Mostly Cloudy
8:54 AM 52.0 °F 50.0 °F 93% 30.02 in 6.0 mi East 5.8 mph - N/A   Scattered Clouds
9:54 AM 53.1 °F 51.1 °F 93% 30.03 in 10.0 mi ESE 5.8 mph - N/A   Overcast
10:54 AM 54.0 °F 50.0 °F 86% 30.05 in 10.0 mi SE 10.4 mph - 0.00 in Rain Light Rain
11:54 AM 53.1 °F 52.0 °F 96% 30.03 in 10.0 mi Calm Calm - 0.07 in Rain Light Rain
12:54 PM 54.0 °F 50.0 °F 86% 30.02 in 10.0 mi Variable 3.5 mph - 0.00 in Rain Light Rain
1:54 PM 55.9 °F 51.1 °F 84% 30.01 in 10.0 mi East 8.1 mph - 0.01 in   Mostly Cloudy
2:54 PM 57.9 °F 51.1 °F 78% 30.00 in 10.0 mi ESE 9.2 mph - N/A   Scattered Clouds
3:54 PM 57.9 °F 48.9 °F 72% 29.99 in 10.0 mi SE 12.7 mph - N/A   Mostly Cloudy
4:54 PM 59.0 °F 48.0 °F 67% 29.99 in 10.0 mi SE 10.4 mph - N/A   Scattered Clouds
5:54 PM 59.0 °F 48.9 °F 69% 29.98 in 10.0 mi East 9.2 mph - N/A   Scattered Clouds
6:54 PM 57.9 °F 50.0 °F 75% 29.99 in 10.0 mi ESE 6.9 mph - N/A   Partly Cloudy
7:54 PM 55.0 °F 48.0 °F 77% 30.00 in 10.0 mi East 3.5 mph - N/A   Clear
8:54 PM 53.1 °F 48.9 °F 86% 30.01 in 10.0 mi Calm Calm - N/A   Mostly Cloudy
9:54 PM 54.0 °F 51.1 °F 90% 30.02 in 10.0 mi East 6.9 mph - N/A   Overcast
10:54 PM 54.0 °F 52.0 °F 93% 30.01 in 10.0 mi East 6.9 mph - 0.00 in Rain Light Rain
11:54 PM 54.0 °F 52.0 °F 93% 30.01 in 10.0 mi East 4.6 mph - 0.00 in   Overcast